| time (UTC) | temp F | wind direction | speed MPH | gust MPH | rain 1hr in | rain 24hr in | rain mn in | humidity % | barometer mb |
| 20260506051009 | 67 | 49 | 2.0 | 10.0 | 0.00 | 0.00 | 0.00 | 74 | 1009.7 |
| 20260506050508 | 67 | 17 | 3.0 | 10.0 | 0.00 | 0.00 | 0.00 | 74 | 1009.7 |
| 20260506045011 | 68 | 36 | 4.0 | 10.0 | 0.00 | 0.00 | 0.00 | 74 | 1009.6 |
| 20260506044526 | 69 | 51 | 4.0 | 11.0 | 0.00 | 0.00 | 0.00 | 74 | 1009.5 |
| 20260506044013 | 69 | 29 | 4.0 | 11.0 | 0.00 | 0.00 | 0.00 | 73 | 1009.6 |
| 20260506043511 | 69 | 51 | 4.0 | 8.0 | 0.00 | 0.00 | 0.00 | 73 | 1009.4 |
| 20260506043025 | 70 | 70 | 4.0 | 12.0 | 0.00 | 0.00 | 0.00 | 74 | 1009.4 |
| 20260506042507 | 70 | 66 | 3.0 | 12.0 | 0.00 | 0.00 | 0.00 | 74 | 1009.2 |
| 20260506042012 | 70 | 44 | 3.0 | 11.0 | 0.00 | 0.00 | 0.00 | 73 | 1009.0 |
| 20260506041534 | 70 | 55 | 3.0 | 11.0 | 0.00 | 0.00 | 0.00 | 73 | 1008.9 |
| 20260506041010 | 70 | 52 | 5.0 | 11.0 | 0.00 | 0.00 | 0.00 | 73 | 1009.0 |
| 20260506040508 | 71 | 5 | 3.0 | 10.0 | 0.00 | 0.00 | 0.00 | 73 | 1009.0 |
| 20260506040024 | 71 | 49 | 3.0 | 11.0 | 0.00 | 0.00 | 0.00 | 73 | 1009.1 |
| 20260506035508 | 71 | 45 | 4.0 | 11.0 | 0.00 | 0.00 | 0.00 | 73 | 1009.0 |
| 20260506035008 | 71 | 49 | 2.0 | 9.0 | 0.00 | 0.00 | 0.00 | 73 | 1008.8 |
| 20260506034522 | 71 | 352 | 3.0 | 9.0 | 0.00 | 0.00 | 0.00 | 73 | 1008.8 |
| 20260506034010 | 71 | 46 | 3.0 | 8.0 | 0.00 | 0.00 | 0.00 | 73 | 1008.8 |
| 20260506033509 | 72 | 56 | 3.0 | 11.0 | 0.00 | 0.00 | 0.00 | 72 | 1009.0 |
| 20260506033027 | 72 | 41 | 3.0 | 11.0 | 0.00 | 0.00 | 0.00 | 72 | 1008.9 |
| 20260506032511 | 72 | 53 | 6.0 | 11.0 | 0.00 | 0.00 | 0.00 | 72 | 1008.7 |
| 20260506032007 | 73 | 32 | 4.0 | 11.0 | 0.00 | 0.00 | 0.00 | 72 | 1008.9 |
| 20260506031534 | 73 | 339 | 3.0 | 9.0 | 0.00 | 0.00 | 0.00 | 72 | 1008.9 |
| 20260506031009 | 74 | 39 | 2.0 | 8.0 | 0.00 | 0.00 | 0.00 | 73 | 1008.8 |
| 20260506030506 | 74 | 16 | 3.0 | 10.0 | 0.00 | 0.00 | 0.00 | 72 | 1008.2 |
| 20260506030027 | 74 | 51 | 3.0 | 10.0 | 0.00 | 0.00 | 0.00 | 72 | 1008.0 |
| 20260506025508 | 74 | 14 | 1.0 | 8.0 | 0.00 | 0.00 | 0.00 | 72 | 1007.9 |
| 20260506025006 | 75 | 352 | 2.0 | 6.0 | 0.00 | 0.00 | 0.00 | 72 | 1007.9 |
| 20260506024535 | 75 | 32 | 2.0 | 5.0 | 0.00 | 0.00 | 0.00 | 72 | 1007.7 |
| 20260506024007 | 75 | 334 | 1.0 | 4.0 | 0.00 | 0.00 | 0.00 | 72 | 1007.4 |
| 20260506023507 | 75 | 44 | 2.0 | 9.0 | 0.00 | 0.00 | 0.00 | 71 | 1007.3 |
| 20260506023029 | 75 | 18 | 3.0 | 9.0 | 0.00 | 0.00 | 0.00 | 71 | 1007.1 |
| 20260506022510 | 75 | 55 | 3.0 | 9.0 | 0.00 | 0.00 | 0.00 | 71 | 1007.0 |
| 20260506022014 | 75 | 40 | 3.0 | 8.0 | 0.00 | 0.00 | 0.00 | 71 | 1006.9 |
| 20260506021526 | 75 | 53 | 2.0 | 9.0 | 0.00 | 0.00 | 0.00 | 71 | 1007.1 |
| 20260506021007 | 75 | 26 | 3.0 | 9.0 | 0.00 | 0.00 | 0.00 | 71 | 1007.0 |
| 20260506020510 | 75 | 46 | 2.0 | 7.0 | 0.00 | 0.00 | 0.00 | 72 | 1006.6 |
| 20260506020028 | 76 | 30 | 2.0 | 7.0 | 0.00 | 0.00 | 0.00 | 71 | 1007.0 |
| 20260506015511 | 76 | 5 | 1.0 | 7.0 | 0.00 | 0.00 | 0.00 | 70 | 1006.9 |
| 20260506015011 | 76 | 26 | 3.0 | 6.0 | 0.00 | 0.00 | 0.00 | 70 | 1006.7 |
| 20260506014530 | 77 | 25 | 1.0 | 6.0 | 0.00 | 0.00 | 0.00 | 69 | 1006.7 |
| 20260506014007 | 78 | 53 | 1.0 | 9.0 | 0.00 | 0.00 | 0.00 | 69 | 1006.6 |
| 20260506013507 | 79 | 35 | 3.0 | 9.0 | 0.00 | 0.00 | 0.00 | 76 | 1006.6 |
| 20260506013029 | 79 | 252 | 0.0 | 2.0 | 0.00 | 0.00 | 0.00 | 77 | 1006.7 |
| 20260506012509 | 79 | 252 | 1.0 | 3.0 | 0.00 | 0.00 | 0.00 | 76 | 1006.7 |
| 20260506012010 | 79 | 240 | 0.0 | 5.0 | 0.00 | 0.00 | 0.00 | 76 | 1006.1 |
| 20260506011556 | 79 | 285 | 0.0 | 5.0 | 0.00 | 0.00 | 0.00 | 76 | 1006.0 |
| 20260506011011 | 79 | 281 | 2.0 | 10.0 | 0.00 | 0.00 | 0.00 | 76 | 1005.7 |
| 20260506010513 | 80 | 234 | 1.0 | 11.0 | 0.00 | 0.00 | 0.00 | 76 | 1005.6 |
| 20260506010026 | 80 | 221 | 3.0 | 11.0 | 0.00 | 0.00 | 0.00 | 76 | 1005.9 |
| 20260506005511 | 80 | 213 | 2.0 | 6.0 | 0.00 | 0.00 | 0.00 | 75 | 1006.0 |
| 20260506005009 | 80 | 219 | 2.0 | 6.0 | 0.00 | 0.00 | 0.00 | 75 | 1006.1 |
| 20260506004528 | 80 | 230 | 2.0 | 6.0 | 0.00 | 0.00 | 0.00 | 75 | 1005.9 |
| 20260506004010 | 80 | 240 | 2.0 | 6.0 | 0.00 | 0.00 | 0.00 | 76 | 1006.1 |
| 20260506003510 | 80 | 273 | 1.0 | 10.0 | 0.00 | 0.00 | 0.00 | 76 | 1006.0 |
| 20260506003005 | 80 | 277 | 0.0 | 10.0 | 0.00 | 0.00 | 0.00 | 75 | 1005.5 |
| 20260506002504 | 80 | 319 | 2.0 | 7.0 | 0.00 | 0.00 | 0.00 | 76 | 1005.6 |
| 20260506002002 | 81 | 243 | 1.0 | 8.0 | 0.00 | 0.00 | 0.00 | 75 | 1005.6 |
| 20260506001508 | 81 | 224 | 3.0 | 10.0 | 0.00 | 0.00 | 0.00 | 74 | 1005.4 |
| 20260506001004 | 81 | 190 | 6.0 | 10.0 | 0.00 | 0.00 | 0.00 | 72 | 1005.2 |
| 20260506000506 | 82 | 108 | 3.0 | 9.0 | 0.00 | 0.00 | 0.00 | 71 | 1005.1 |
| 20260506000008 | 82 | 132 | 3.0 | 9.0 | 0.00 | 0.00 | 0.00 | 71 | 1005.0 |
| 20260505235504 | 82 | 220 | 1.0 | 9.0 | 0.00 | 0.00 | 0.00 | 71 | 1004.8 |
| 20260505235003 | 83 | 253 | 2.0 | 10.0 | 0.00 | 0.00 | 0.00 | 71 | 1004.9 |
| 20260505234515 | 83 | 213 | 2.0 | 11.0 | 0.00 | 0.00 | 0.00 | 70 | 1005.1 |
| 20260505234005 | 83 | 202 | 4.0 | 12.0 | 0.00 | 0.00 | 0.00 | 70 | 1005.2 |
| 20260505233503 | 83 | 246 | 6.0 | 12.0 | 0.00 | 0.00 | 0.00 | 69 | 1005.0 |
| 20260505233003 | 84 | 236 | 3.0 | 9.0 | 0.00 | 0.00 | 0.00 | 69 | 1004.9 |
| 20260505232505 | 84 | 213 | 3.0 | 11.0 | 0.00 | 0.00 | 0.00 | 69 | 1004.9 |
| 20260505232003 | 84 | 258 | 4.0 | 11.0 | 0.00 | 0.00 | 0.00 | 68 | 1005.0 |
| 20260505231507 | 85 | 234 | 4.0 | 11.0 | 0.00 | 0.00 | 0.00 | 67 | 1005.1 |
| 20260505231002 | 85 | 196 | 5.0 | 11.0 | 0.00 | 0.00 | 0.00 | 67 | 1005.0 |
| 20260505230502 | 85 | 223 | 4.0 | 10.0 | 0.00 | 0.00 | 0.00 | 66 | 1004.8 |
| 20260505230010 | 86 | 180 | 3.0 | 10.0 | 0.00 | 0.00 | 0.00 | 67 | 1004.6 |
| 20260505225505 | 86 | 253 | 6.0 | 10.0 | 0.00 | 0.00 | 0.00 | 66 | 1004.6 |
| 20260505225003 | 86 | 263 | 4.0 | 10.0 | 0.00 | 0.00 | 0.00 | 66 | 1004.7 |
| 20260505224508 | 86 | 245 | 4.0 | 12.0 | 0.00 | 0.00 | 0.00 | 66 | 1004.6 |
| 20260505224004 | 86 | 244 | 4.0 | 12.0 | 0.00 | 0.00 | 0.00 | 65 | 1004.5 |
| 20260505223503 | 86 | 110 | 4.0 | 11.0 | 0.00 | 0.00 | 0.00 | 65 | 1004.5 |
| 20260505223010 | 86 | 202 | 2.0 | 14.0 | 0.00 | 0.00 | 0.00 | 67 | 1004.5 |
| 20260505222505 | 86 | 243 | 4.0 | 14.0 | 0.00 | 0.00 | 0.00 | 66 | 1004.6 |
| 20260505222002 | 86 | 221 | 3.0 | 14.0 | 0.00 | 0.00 | 0.00 | 66 | 1004.7 |
| 20260505221503 | 86 | 248 | 4.0 | 14.0 | 0.00 | 0.00 | 0.00 | 66 | 1004.7 |
| 20260505221002 | 86 | 213 | 5.0 | 12.0 | 0.00 | 0.00 | 0.00 | 66 | 1004.6 |
| 20260505220502 | 87 | 213 | 5.0 | 12.0 | 0.00 | 0.00 | 0.00 | 64 | 1004.6 |
| 20260505220008 | 87 | 147 | 4.0 | 15.0 | 0.00 | 0.00 | 0.00 | 65 | 1004.7 |
| 20260505215503 | 87 | 258 | 5.0 | 15.0 | 0.00 | 0.00 | 0.00 | 65 | 1004.6 |
| 20260505215006 | 87 | 250 | 5.0 | 12.0 | 0.00 | 0.00 | 0.00 | 65 | 1004.7 |
| 20260505214514 | 87 | 169 | 5.0 | 14.0 | 0.00 | 0.00 | 0.00 | 64 | 1004.7 |
| 20260505214004 | 87 | 243 | 3.0 | 13.0 | 0.00 | 0.00 | 0.00 | 66 | 1004.8 |
| 20260505213506 | 87 | 251 | 7.0 | 13.0 | 0.00 | 0.00 | 0.00 | 64 | 1004.8 |
| 20260505212503 | 88 | 300 | 5.0 | 19.0 | 0.00 | 0.00 | 0.00 | 64 | 1004.8 |
| 20260505212011 | 87 | 237 | 5.0 | 16.0 | 0.00 | 0.00 | 0.00 | 62 | 1004.8 |
| 20260505211518 | 88 | 207 | 8.0 | 12.0 | 0.00 | 0.00 | 0.00 | 63 | 1004.9 |
| 20260505211003 | 88 | 214 | 3.0 | 12.0 | 0.00 | 0.00 | 0.00 | 64 | 1004.8 |
| 20260505210502 | 87 | 246 | 3.0 | 12.0 | 0.00 | 0.00 | 0.00 | 65 | 1004.8 |
| 20260505210006 | 88 | 236 | 6.0 | 12.0 | 0.00 | 0.00 | 0.00 | 65 | 1005.0 |
| 20260505205503 | 88 | 209 | 6.0 | 12.0 | 0.00 | 0.00 | 0.00 | 64 | 1005.1 |
| 20260505205003 | 88 | 271 | 4.0 | 12.0 | 0.00 | 0.00 | 0.00 | 64 | 1005.2 |
| 20260505204508 | 89 | 224 | 6.0 | 11.0 | 0.00 | 0.00 | 0.00 | 63 | 1005.2 |
| 20260505204004 | 87 | 195 | 2.0 | 10.0 | 0.00 | 0.00 | 0.00 | 64 | 1005.2 |
| 20260505203504 | 87 | 253 | 3.0 | 11.0 | 0.00 | 0.00 | 0.00 | 63 | 1005.3 |
| 20260505203015 | 87 | 189 | 4.0 | 13.0 | 0.00 | 0.00 | 0.00 | 64 | 1005.4 |
| 20260505202505 | 87 | 227 | 5.0 | 13.0 | 0.00 | 0.00 | 0.00 | 63 | 1005.4 |
| 20260505202007 | 87 | 216 | 5.0 | 14.0 | 0.00 | 0.00 | 0.00 | 63 | 1005.4 |
| 20260505201512 | 87 | 246 | 6.0 | 14.0 | 0.00 | 0.00 | 0.00 | 64 | 1005.5 |
| 20260505201004 | 86 | 262 | 6.0 | 15.0 | 0.00 | 0.00 | 0.00 | 64 | 1005.5 |
| 20260505200503 | 86 | 242 | 7.0 | 15.0 | 0.00 | 0.00 | 0.00 | 62 | 1005.6 |
| 20260505200013 | 87 | 229 | 4.0 | 14.0 | 0.00 | 0.00 | 0.00 | 64 | 1005.6 |
| 20260505195503 | 86 | 170 | 7.0 | 14.0 | 0.00 | 0.00 | 0.00 | 64 | 1005.6 |
| 20260505195003 | 86 | 86 | 5.0 | 11.0 | 0.00 | 0.00 | 0.00 | 65 | 1005.6 |
| 20260505194508 | 86 | 247 | 6.0 | 11.0 | 0.00 | 0.00 | 0.00 | 64 | 1005.6 |
| 20260505194003 | 86 | 249 | 5.0 | 19.0 | 0.00 | 0.00 | 0.00 | 65 | 1005.6 |
| 20260505193505 | 86 | 232 | 7.0 | 19.0 | 0.00 | 0.00 | 0.00 | 65 | 1005.6 |
| 20260505193015 | 85 | 227 | 5.0 | 13.0 | 0.00 | 0.00 | 0.00 | 66 | 1005.6 |
| 20260505192504 | 85 | 285 | 5.0 | 16.0 | 0.00 | 0.00 | 0.00 | 67 | 1005.6 |
| 20260505192005 | 84 | 187 | 8.0 | 16.0 | 0.00 | 0.00 | 0.00 | 66 | 1005.7 |
| 20260505191516 | 84 | 265 | 5.0 | 13.0 | 0.00 | 0.00 | 0.00 | 69 | 1005.7 |
| 20260505191006 | 84 | 250 | 6.0 | 17.0 | 0.00 | 0.00 | 0.00 | 68 | 1005.8 |
| 20260505190505 | 84 | 207 | 5.0 | 17.0 | 0.00 | 0.00 | 0.00 | 68 | 1005.8 |
| 20260505190014 | 83 | 257 | 7.0 | 15.0 | 0.00 | 0.00 | 0.00 | 69 | 1005.8 |
| 20260505185504 | 83 | 210 | 7.0 | 16.0 | 0.00 | 0.00 | 0.00 | 69 | 1005.9 |
| 20260505185009 | 82 | 226 | 6.0 | 16.0 | 0.00 | 0.00 | 0.00 | 70 | 1005.8 |
| 20260505184520 | 82 | 240 | 7.0 | 16.0 | 0.00 | 0.00 | 0.00 | 70 | 1005.8 |
| 20260505184004 | 82 | 177 | 7.0 | 16.0 | 0.00 | 0.00 | 0.00 | 70 | 1006.0 |
| 20260505183503 | 82 | 243 | 7.0 | 14.0 | 0.00 | 0.00 | 0.00 | 70 | 1005.9 |
| 20260505183012 | 82 | 246 | 5.0 | 14.0 | 0.00 | 0.00 | 0.00 | 70 | 1005.9 |
| 20260505182503 | 82 | 275 | 6.0 | 15.0 | 0.00 | 0.00 | 0.00 | 71 | 1006.0 |
| 20260505182006 | 82 | 241 | 7.0 | 15.0 | 0.00 | 0.00 | 0.00 | 70 | 1006.0 |
| 20260505181516 | 82 | 234 | 3.0 | 15.0 | 0.00 | 0.00 | 0.00 | 69 | 1006.0 |
| 20260505181008 | 82 | 200 | 6.0 | 15.0 | 0.00 | 0.00 | 0.00 | 71 | 1006.1 |
| 20260505180507 | 82 | 211 | 4.0 | 13.0 | 0.00 | 0.00 | 0.00 | 69 | 1006.0 |
| 20260505180015 | 82 | 128 | 4.0 | 16.0 | 0.00 | 0.00 | 0.00 | 69 | 1006.0 |
| 20260505175506 | 83 | 232 | 7.0 | 16.0 | 0.00 | 0.00 | 0.00 | 67 | 1006.0 |
| 20260505175006 | 83 | 240 | 6.0 | 12.0 | 0.00 | 0.00 | 0.00 | 69 | 1006.1 |
| 20260505174518 | 83 | 220 | 4.0 | 15.0 | 0.00 | 0.00 | 0.00 | 70 | 1006.0 |
| 20260505174006 | 82 | 191 | 5.0 | 16.0 | 0.00 | 0.00 | 0.00 | 70 | 1005.9 |
| 20260505173510 | 81 | 261 | 7.0 | 16.0 | 0.00 | 0.00 | 0.00 | 70 | 1005.9 |
| 20260505173017 | 81 | 244 | 7.0 | 16.0 | 0.00 | 0.00 | 0.00 | 71 | 1006.0 |
| 20260505172503 | 81 | 225 | 6.0 | 15.0 | 0.00 | 0.00 | 0.00 | 70 | 1006.0 |
| 20260505172003 | 81 | 254 | 6.0 | 13.0 | 0.00 | 0.00 | 0.00 | 70 | 1006.1 |
| 20260505171515 | 81 | 250 | 4.0 | 12.0 | 0.00 | 0.00 | 0.00 | 71 | 1006.1 |
| 20260505171007 | 81 | 234 | 7.0 | 16.0 | 0.00 | 0.00 | 0.00 | 69 | 1006.0 |
| 20260505170508 | 81 | 207 | 6.0 | 16.0 | 0.00 | 0.00 | 0.00 | 70 | 1006.1 |
| 20260505170023 | 80 | 275 | 7.0 | 14.0 | 0.00 | 0.00 | 0.00 | 71 | 1006.1 |
| 20260505165505 | 80 | 238 | 4.0 | 16.0 | 0.00 | 0.00 | 0.00 | 71 | 1006.1 |
| 20260505165005 | 80 | 219 | 5.0 | 16.0 | 0.00 | 0.00 | 0.00 | 72 | 1006.0 |
| 20260505164518 | 79 | 203 | 4.0 | 16.0 | 0.00 | 0.00 | 0.00 | 72 | 1006.2 |
| 20260505164007 | 79 | 218 | 8.0 | 20.0 | 0.00 | 0.00 | 0.00 | 72 | 1006.2 |
| 20260505163510 | 79 | 258 | 7.0 | 21.0 | 0.00 | 0.00 | 0.00 | 72 | 1005.9 |
| 20260505163022 | 79 | 227 | 9.0 | 21.0 | 0.00 | 0.00 | 0.00 | 72 | 1006.0 |
| 20260505162506 | 79 | 234 | 8.0 | 19.0 | 0.00 | 0.00 | 0.00 | 73 | 1005.9 |
| 20260505162006 | 78 | 212 | 4.0 | 19.0 | 0.00 | 0.00 | 0.00 | 75 | 1005.9 |
| 20260505161517 | 78 | 211 | 9.0 | 21.0 | 0.00 | 0.00 | 0.00 | 74 | 1005.9 |
| 20260505161006 | 78 | 173 | 8.0 | 21.0 | 0.00 | 0.00 | 0.00 | 74 | 1005.8 |
| 20260505160506 | 77 | 200 | 6.0 | 18.0 | 0.00 | 0.00 | 0.00 | 76 | 1005.8 |
| 20260505153021 | 75 | 256 | 7.0 | 16.0 | 0.00 | 0.00 | 0.00 | 78 | 1006.1 |
| 20260505152506 | 75 | 215 | 6.0 | 11.0 | 0.00 | 0.00 | 0.00 | 78 | 1006.1 |
| 20260505152013 | 75 | 259 | 4.0 | 11.0 | 0.00 | 0.00 | 0.00 | 79 | 1006.2 |
| 20260505151520 | 75 | 209 | 6.0 | 15.0 | 0.00 | 0.00 | 0.00 | 78 | 1006.2 |
| 20260505151009 | 74 | 195 | 6.0 | 18.0 | 0.00 | 0.00 | 0.00 | 79 | 1006.1 |
| 20260505150507 | 74 | 219 | 3.0 | 20.0 | 0.00 | 0.00 | 0.00 | 79 | 1006.1 |
| 20260505140508 | 73 | 200 | 8.0 | 15.0 | 0.00 | 0.00 | 0.00 | 81 | 1005.7 |
| 20260505125008 | 72 | 202 | 7.0 | 14.0 | 0.00 | 0.00 | 0.00 | 82 | 1005.7 |
| 20260505124538 | 72 | 242 | 5.0 | 12.0 | 0.00 | 0.00 | 0.00 | 82 | 1005.5 |
| 20260505124010 | 72 | 225 | 4.0 | 16.0 | 0.00 | 0.00 | 0.00 | 82 | 1005.4 |
| 20260505123508 | 71 | 253 | 5.0 | 16.0 | 0.00 | 0.00 | 0.00 | 82 | 1005.3 |
| 20260505123022 | 71 | 238 | 5.0 | 14.0 | 0.00 | 0.00 | 0.00 | 82 | 1005.4 |
| 20260505122510 | 71 | 220 | 6.0 | 14.0 | 0.00 | 0.00 | 0.00 | 82 | 1005.2 |
| 20260505122014 | 71 | 211 | 6.0 | 16.0 | 0.00 | 0.00 | 0.00 | 82 | 1005.2 |
| 20260505121532 | 71 | 186 | 5.0 | 16.0 | 0.00 | 0.00 | 0.00 | 82 | 1005.3 |
| 20260505121011 | 71 | 224 | 5.0 | 16.0 | 0.00 | 0.00 | 0.00 | 82 | 1005.2 |
| 20260505120504 | 71 | 241 | 4.0 | 13.0 | 0.00 | 0.00 | 0.00 | 82 | 1005.2 |
| 20260505120009 | 71 | 201 | 5.0 | 13.0 | 0.00 | 0.00 | 0.00 | 82 | 1005.1 |
| 20260505115504 | 71 | 231 | 5.0 | 18.0 | 0.00 | 0.00 | 0.00 | 82 | 1005.0 |
| 20260505115003 | 71 | 214 | 8.0 | 18.0 | 0.00 | 0.00 | 0.00 | 83 | 1005.1 |
| 20260505114514 | 71 | 206 | 6.0 | 14.0 | 0.00 | 0.00 | 0.00 | 83 | 1005.0 |
| 20260505114008 | 71 | 226 | 5.0 | 14.0 | 0.00 | 0.00 | 0.00 | 82 | 1005.0 |
| 20260505113506 | 71 | 234 | 5.0 | 14.0 | 0.00 | 0.00 | 0.00 | 82 | 1005.0 |
| 20260505113004 | 71 | 194 | 6.0 | 14.0 | 0.00 | 0.00 | 0.00 | 82 | 1005.0 |
| 20260505112503 | 71 | 223 | 4.0 | 14.0 | 0.00 | 0.00 | 0.00 | 82 | 1004.9 |
| 20260505112003 | 71 | 245 | 6.0 | 16.0 | 0.00 | 0.00 | 0.00 | 82 | 1005.1 |
| 20260505111504 | 71 | 248 | 5.0 | 16.0 | 0.00 | 0.00 | 0.00 | 82 | 1005.1 |
| 20260505111004 | 71 | 168 | 4.0 | 12.0 | 0.00 | 0.00 | 0.00 | 82 | 1005.0 |
| 20260505110504 | 71 | 216 | 4.0 | 11.0 | 0.00 | 0.00 | 0.00 | 82 | 1004.9 |
| 20260505102006 | 71 | 178 | 7.0 | 14.0 | 0.00 | 0.00 | 0.00 | 82 | 1005.1 |
| 20260505101503 | 71 | 232 | 5.0 | 12.0 | 0.00 | 0.00 | 0.00 | 82 | 1005.1 |
| 20260505101003 | 71 | 227 | 7.0 | 12.0 | 0.00 | 0.00 | 0.00 | 82 | 1005.1 |
| 20260505100503 | 71 | 258 | 4.0 | 11.0 | 0.00 | 0.00 | 0.00 | 82 | 1005.2 |
| 20260505100014 | 71 | 263 | 4.0 | 12.0 | 0.00 | 0.00 | 0.00 | 82 | 1005.3 |
| 20260505095503 | 71 | 258 | 4.0 | 12.0 | 0.00 | 0.00 | 0.00 | 82 | 1005.4 |
| 20260505095005 | 71 | 227 | 4.0 | 13.0 | 0.00 | 0.00 | 0.00 | 82 | 1005.3 |
| 20260505094513 | 71 | 219 | 5.0 | 13.0 | 0.00 | 0.00 | 0.00 | 82 | 1005.4 |
| 20260505094005 | 71 | 222 | 5.0 | 13.0 | 0.00 | 0.00 | 0.00 | 82 | 1005.4 |
| 20260505093506 | 71 | 159 | 4.0 | 13.0 | 0.00 | 0.00 | 0.00 | 82 | 1005.6 |
| 20260505093024 | 71 | 190 | 4.0 | 15.0 | 0.00 | 0.00 | 0.00 | 82 | 1005.6 |
| 20260505092505 | 71 | 264 | 5.0 | 16.0 | 0.00 | 0.00 | 0.00 | 82 | 1005.5 |
| 20260505092008 | 71 | 233 | 6.0 | 16.0 | 0.00 | 0.00 | 0.00 | 82 | 1005.4 |
| 20260505091523 | 71 | 236 | 7.0 | 14.0 | 0.00 | 0.00 | 0.00 | 82 | 1005.4 |
| 20260505091006 | 71 | 244 | 3.0 | 14.0 | 0.00 | 0.00 | 0.00 | 82 | 1005.5 |
| 20260505090503 | 71 | 204 | 5.0 | 11.0 | 0.00 | 0.00 | 0.00 | 82 | 1005.5 |
| 20260505090004 | 71 | 215 | 3.0 | 14.0 | 0.00 | 0.00 | 0.00 | 82 | 1005.2 |
| 20260505085504 | 71 | 175 | 5.0 | 14.0 | 0.00 | 0.00 | 0.00 | 82 | 1005.3 |
| 20260505085009 | 71 | 223 | 5.0 | 17.0 | 0.00 | 0.00 | 0.00 | 82 | 1005.3 |
| 20260505084506 | 71 | 213 | 5.0 | 17.0 | 0.00 | 0.00 | 0.00 | 82 | 1005.4 |
| 20260505084005 | 71 | 191 | 5.0 | 13.0 | 0.00 | 0.00 | 0.00 | 82 | 1005.4 |
| 20260505083509 | 71 | 250 | 5.0 | 13.0 | 0.00 | 0.00 | 0.00 | 82 | 1005.5 |
| 20260505083018 | 71 | 225 | 4.0 | 13.0 | 0.00 | 0.00 | 0.00 | 82 | 1005.5 |
| 20260505082506 | 71 | 231 | 4.0 | 11.0 | 0.00 | 0.00 | 0.00 | 82 | 1005.5 |
| 20260505082008 | 71 | 242 | 4.0 | 15.0 | 0.00 | 0.00 | 0.00 | 82 | 1005.5 |
| 20260505081518 | 71 | 45 | 3.0 | 15.0 | 0.00 | 0.00 | 0.00 | 82 | 1005.5 |
| 20260505081008 | 71 | 248 | 4.0 | 11.0 | 0.00 | 0.00 | 0.00 | 82 | 1005.6 |
| 20260505080508 | 71 | 195 | 5.0 | 12.0 | 0.00 | 0.00 | 0.00 | 82 | 1005.7 |
| 20260505080025 | 71 | 158 | 4.0 | 19.0 | 0.00 | 0.00 | 0.00 | 82 | 1005.8 |
| 20260505075503 | 70 | 243 | 5.0 | 19.0 | 0.00 | 0.00 | 0.00 | 82 | 1005.8 |
| 20260505075003 | 70 | 207 | 2.0 | 13.0 | 0.00 | 0.00 | 0.00 | 82 | 1005.9 |
| 20260505074509 | 70 | 196 | 5.0 | 11.0 | 0.00 | 0.00 | 0.00 | 82 | 1005.9 |
| 20260505074004 | 70 | 236 | 3.0 | 12.0 | 0.00 | 0.00 | 0.00 | 81 | 1006.0 |
| 20260505073503 | 70 | 207 | 4.0 | 12.0 | 0.00 | 0.00 | 0.00 | 81 | 1006.1 |
| 20260505073012 | 71 | 209 | 4.0 | 11.0 | 0.00 | 0.00 | 0.00 | 81 | 1006.2 |
| 20260505072503 | 71 | 215 | 5.0 | 15.0 | 0.00 | 0.00 | 0.00 | 81 | 1006.2 |
| 20260505072006 | 71 | 207 | 5.0 | 18.0 | 0.00 | 0.00 | 0.00 | 81 | 1006.3 |
| 20260505071518 | 71 | 244 | 5.0 | 18.0 | 0.00 | 0.00 | 0.00 | 81 | 1006.4 |
| 20260505071008 | 71 | 246 | 6.0 | 16.0 | 0.00 | 0.00 | 0.00 | 80 | 1006.3 |
| 20260505070509 | 71 | 255 | 4.0 | 16.0 | 0.00 | 0.00 | 0.00 | 80 | 1006.4 |
| 20260505070020 | 71 | 252 | 6.0 | 15.0 | 0.00 | 0.00 | 0.00 | 80 | 1006.5 |
| 20260505065507 | 71 | 220 | 8.0 | 16.0 | 0.00 | 0.00 | 0.00 | 80 | 1006.5 |
| 20260505065012 | 71 | 252 | 3.0 | 16.0 | 0.00 | 0.00 | 0.00 | 80 | 1006.5 |
| 20260505064524 | 71 | 220 | 7.0 | 15.0 | 0.00 | 0.00 | 0.00 | 80 | 1006.5 |
| 20260505064003 | 71 | 222 | 8.0 | 15.0 | 0.00 | 0.00 | 0.00 | 80 | 1006.4 |
| 20260505063503 | 71 | 211 | 7.0 | 16.0 | 0.00 | 0.00 | 0.00 | 79 | 1006.5 |
| 20260505063014 | 71 | 238 | 7.0 | 17.0 | 0.00 | 0.00 | 0.00 | 79 | 1006.5 |
| 20260505062504 | 71 | 173 | 6.0 | 17.0 | 0.00 | 0.00 | 0.00 | 79 | 1006.6 |
| 20260505062005 | 71 | 184 | 4.0 | 12.0 | 0.00 | 0.00 | 0.00 | 79 | 1006.6 |
| 20260505061512 | 71 | 125 | 4.0 | 14.0 | 0.00 | 0.00 | 0.00 | 79 | 1006.6 |
| 20260505061004 | 71 | 240 | 4.0 | 15.0 | 0.00 | 0.00 | 0.00 | 78 | 1006.8 |
| 20260505060508 | 71 | 182 | 6.0 | 14.0 | 0.00 | 0.00 | 0.00 | 78 | 1006.9 |
| 20260505060017 | 71 | 164 | 6.0 | 14.0 | 0.00 | 0.00 | 0.00 | 78 | 1006.8 |
| 20260505055509 | 71 | 268 | 5.0 | 15.0 | 0.00 | 0.00 | 0.00 | 78 | 1006.8 |
| 20260505055010 | 71 | 236 | 4.0 | 15.0 | 0.00 | 0.00 | 0.00 | 78 | 1006.8 |
| 20260505054534 | 71 | 250 | 5.0 | 15.0 | 0.00 | 0.00 | 0.00 | 77 | 1006.8 |